Tracking 19192 objects as of 18-Jun-2018
HD Live streaming from Space Station
objects crossing your sky now

FENGYUN 1C DEB

Track FENGYUN 1C DEB now!
10-day predictions


NORAD ID: 31183
Int'l Code: 1999-025BJM
Perigee: 747.1 km
Apogee: 839.4 km
Inclination: 99.1 °
Period: 100.6 minutes
Semi major axis: 7164 km
RCS: 0.0164 m2 (small)
Launch date: May 10, 1999
Source: People's Republic of China (PRC)
Launch site: Taiyaun Space Center, China (TSC)

Note: This is SATELLITE DEBRIS
aabbcc
Your satellite tracking list
Your tracking list is empty




NASA's NSSDC Master Catalog

Two Line Element Set (TLE):
1 31183U 99025BJM 18168.73656344 +.00000438 +00000-0 +17813-3 0  9991
2 31183 099.0860 349.1555 0064440 203.6370 220.3077 14.31677498582265
Source of the keplerian elements: AFSPC